Flight Briefing for CPX317

Departure Arrival
Portland International Airport (KPDX)
Click to view FAA NOTAMS
Phoenix Sky Harbor International Airport (KPHX)
Click to view FAA NOTAMS
Departure Time Arrival Time
N/A N/A
Aircraft Distance
B767-300BDSF 878nm
Departure METAR Arrival METAR
KPDX 250253Z 33006KT 10SM BKN070 14/06 A3000 RMK AO2 SLP157 60000 T01390061 51010 KPHX 250251Z 33009KT 10SM FEW008 28/M04 A2978 RMK AO2 SLP069 FU VC NW-N FEW008 T02831039 53000
Suggested Route
BTG J159 DSD REO J523 ELY WINEN Q35 CORKR TENTS BRUSR1


View recent IFR Routes data
Notes



Charts and Procedures

Charts for KPDX
No chart available
Charts for KPHX
No chart available

Windy.com Weather Map